sat.trackr.live / text

‹ back to catalog

STARLINK-36043

NORAD 66901 · 2025-283Z

PAYLOAD ACTIVE UNKNOWN

§ Identity

Operator
Country
US
Launch date
2025-12-04
Launch site
AFWTR
Launch vehicle
Mass (kg)
RCS (m²)

Purposes: comms

External: N2YO · Heavens-Above · Gunter

§ Orbital elements

Epoch: 2026-05-25T01:43:29.333856Z

Period
93.85 min
Inclination
53.1615°
Eccentricity
0.0000978
Mean motion
15.34409840 rev/d
Perigee alt
462.0 km
Apogee alt
463.3 km
Semi-major
6,840.8 km
B*
9.9224e-4
RAAN
29.0214°
Arg perigee
70.9782°
Mean anomaly
289.1327°
Rev number
2,754

§ Raw data

STARLINK-360431 66901U 25283Z   26145.07186729  .00033307  00000+0  99224-3 0  99942 66901  53.1615  29.0214 0000978  70.9782 289.1327 15.34409840 27548

JSON: /api/v1/satellites/66901 · /tle

For live sub-satellite position, see the globe view (requires WebGL).

§ Visibility from observer

Set your observer location to see the next 7 days of passes ≥ 10°. The values pass through the URL so the page stays shareable.

No JS? Fill the form by hand. The geolocation button needs JavaScript.